QPF
0.14 0.25 0.30 0.27 0.27 0.25 0.23 0.23 0.23 0.20 0.18 0.18 0.17 0.14 0.14 0.14 0.14 0.11 0.10 0.07 0.06 0.07 0.07 0.09 0.08 0.07 0.08 0.09 0.07 0.06 0.08 0.09 0.11 0.12 0.09 0.07 0.03 0.02 0.02 0.01 0.01 0.02 0.02
0.22 0.35 0.32 0.25 0.23 0.22 0.21 0.23 0.27 0.24 0.18 0.18 0.19 0.19 0.17 0.15 0.16 0.15 0.12 0.09 0.08 0.09 0.09 0.08 0.07 0.05 0.07 0.11 0.10 0.08 0.08 0.10 0.13 0.10 0.07 0.06 0.04 0.02 0.02 0.01 0.01 0.02 0.02
0.25 0.30 0.28 0.24 0.21 0.21 0.20 0.19 0.21 0.20 0.20 0.23 0.25 0.22 0.19 0.17 0.17 0.15 0.14 0.12 0.12 0.12 0.10 0.08 0.06 0.05 0.07 0.12 0.11 0.09 0.09 0.11 0.11 0.08 0.05 0.05 0.05 0.03 0.02 0.02 0.01 0.01 0.02
0.24 0.22 0.23 0.24 0.21 0.20 0.18 0.16 0.17 0.19 0.22 0.25 0.25 0.22 0.19 0.17 0.18 0.16 0.15 0.14 0.15 0.12 0.10 0.08 0.07 0.08 0.10 0.13 0.12 0.09 0.09 0.12 0.09 0.05 0.04 0.04 0.03 0.02 0.02 0.03 0.03 0.02 0.02
0.17 0.16 0.19 0.21 0.18 0.21 0.23 0.19 0.17 0.18 0.20 0.22 0.19 0.22 0.18 0.17 0.21 0.19 0.18 0.15 0.12 0.12 0.12 0.10 0.10 0.10 0.13 0.13 0.12 0.11 0.10 0.09 0.04 0.02 0.02 0.03 0.04 0.03 0.03 0.03 0.04 0.03 0.01
0.14 0.15 0.16 0.16 0.17 0.23 0.28 0.25 0.21 0.20 0.19 0.18 0.17 0.21 0.20 0.19 0.22 0.20 0.18 0.14 0.11 0.12 0.12 0.11 0.11 0.10 0.11 0.12 0.13 0.11 0.08 0.05 0.03 0.02 0.02 0.02 0.02 0.03 0.03 0.03 0.03 0.02 0.01
0.16 0.16 0.14 0.13 0.16 0.23 0.29 0.28 0.26 0.22 0.18 0.16 0.16 0.19 0.19 0.19 0.22 0.22 0.20 0.14 0.10 0.12 0.13 0.11 0.09 0.08 0.08 0.11 0.12 0.10 0.06 0.03 0.02 0.02 0.02 0.02 0.03 0.03 0.03 0.02 0.03 0.03 0.02
0.13 0.14 0.12 0.12 0.11 0.15 0.23 0.29 0.31 0.22 0.17 0.17 0.18 0.20 0.19 0.17 0.19 0.22 0.21 0.15 0.13 0.14 0.14 0.13 0.10 0.08 0.08 0.09 0.11 0.11 0.07 0.03 0.02 0.02 0.02 0.03 0.03 0.03 0.02 0.02 0.03 0.03 0.02
0.08 0.10 0.12 0.11 0.08 0.09 0.15 0.23 0.27 0.26 0.23 0.22 0.21 0.19 0.18 0.18 0.19 0.20 0.21 0.17 0.14 0.18 0.18 0.15 0.12 0.08 0.09 0.10 0.12 0.14 0.10 0.05 0.04 0.03 0.02 0.02 0.02 0.03 0.03 0.02 0.02 0.02 0.02
0.05 0.07 0.08 0.06 0.08 0.09 0.10 0.16 0.20 0.25 0.25 0.22 0.20 0.19 0.19 0.21 0.22 0.23 0.21 0.21 0.17 0.15 0.14 0.16 0.13 0.09 0.08 0.07 0.09 0.10 0.09 0.06 0.05 0.03 0.02 0.02 0.02 0.03 0.04 0.03 0.03 0.03 0.03
0.02 0.03 0.03 0.03 0.05 0.06 0.07 0.10 0.13 0.17 0.24 0.26 0.26 0.29 0.30 0.29 0.27 0.24 0.21 0.26 0.23 0.16 0.14 0.15 0.11 0.07 0.06 0.05 0.06 0.06 0.04 0.04 0.04 0.03 0.02 0.03 0.02 0.03 0.05 0.05 0.05 0.07 0.07
0.01 0.01 0.03 0.04 0.04 0.03 0.04 0.09 0.12 0.14 0.19 0.24 0.32 0.32 0.27 0.26 0.25 0.18 0.20 0.28 0.28 0.23 0.20 0.17 0.13 0.08 0.04 0.04 0.05 0.04 0.02 0.02 0.02 0.02 0.02 0.03 0.03 0.03 0.05 0.05 0.05 0.06 0.07
0.01 0.01 0.01 0.03 0.04 0.03 0.05 0.07 0.08 0.12 0.16 0.17 0.18 0.17 0.17 0.18 0.18 0.17 0.22 0.28 0.37 0.29 0.23 0.20 0.13 0.06 0.03 0.03 0.02 0.02 0.01 0.01 0.01 0.00 0.01 0.01 0.02 0.02 0.03 0.04 0.05 0.05 0.05
0.00 0.01 0.01 0.02 0.05 0.06 0.05 0.05 0.08 0.14 0.12 0.09 0.09 0.08 0.09 0.11 0.13 0.14 0.17 0.22 0.30 0.26 0.21 0.15 0.09 0.06 0.04 0.02 0.02 0.02 0.02 0.01 0.01 0.01 0.01 0.01 0.01 0.02 0.03 0.02 0.03 0.04 0.04
0.00 0.01 0.01 0.03 0.07 0.07 0.05 0.04 0.08 0.14 0.13 0.06 0.05 0.06 0.07 0.09 0.11 0.12 0.13 0.22 0.25 0.20 0.15 0.11 0.07 0.05 0.04 0.02 0.02 0.02 0.03 0.02 0.01 0.01 0.01 0.01 0.01 0.02 0.02 0.03 0.04 0.04 0.04
0.00 0.01 0.01 0.03 0.03 0.03 0.04 0.05 0.08 0.12 0.13 0.07 0.07 0.07 0.09 0.10 0.09 0.08 0.11 0.20 0.18 0.17 0.11 0.07 0.04 0.04 0.04 0.02 0.03 0.03 0.02 0.02 0.01 0.01 0.01 0.02 0.02 0.01 0.03 0.05 0.07 0.07 0.06
0.00 0.00 0.01 0.03 0.04 0.03 0.03 0.05 0.07 0.11 0.11 0.09 0.09 0.09 0.11 0.10 0.09 0.09 0.11 0.15 0.14 0.15 0.10 0.06 0.04 0.04 0.03 0.03 0.04 0.04 0.04 0.04 0.02 0.02 0.02 0.03 0.03 0.02 0.02 0.03 0.04 0.05 0.05
0.00 0.00 0.01 0.02 0.05 0.04 0.03 0.02 0.03 0.05 0.06 0.07 0.07 0.09 0.09 0.09 0.08 0.10 0.10 0.10 0.10 0.09 0.07 0.06 0.04 0.04 0.04 0.05 0.05 0.04 0.06 0.05 0.04 0.04 0.03 0.03 0.05 0.03 0.02 0.02 0.03 0.04 0.04
0.00 0.00 0.01 0.02 0.06 0.03 0.02 0.02 0.02 0.03 0.04 0.04 0.05 0.05 0.05 0.05 0.05 0.07 0.09 0.10 0.07 0.04 0.04 0.03 0.04 0.04 0.04 0.07 0.05 0.06 0.06 0.04 0.05 0.04 0.03 0.02 0.03 0.03 0.03 0.02 0.02 0.03 0.04
0.00 0.00 0.00 0.02 0.06 0.04 0.03 0.03 0.03 0.03 0.03 0.03 0.04 0.04 0.03 0.04 0.04 0.06 0.07 0.08 0.04 0.03 0.03 0.04 0.06 0.06 0.06 0.09 0.07 0.06 0.05 0.03 0.04 0.04 0.02 0.02 0.03 0.02 0.01 0.02 0.03 0.03 0.03
0.01 0.01 0.01 0.01 0.04 0.04 0.03 0.02 0.03 0.02 0.03 0.03 0.03 0.03 0.04 0.03 0.05 0.06 0.05 0.06 0.05 0.04 0.04 0.04 0.06 0.08 0.08 0.09 0.09 0.08 0.05 0.03 0.03 0.03 0.03 0.03 0.02 0.02 0.02 0.03 0.05 0.04 0.03
0.01 0.01 0.01 0.01 0.02 0.02 0.02 0.03 0.04 0.03 0.03 0.04 0.04 0.04 0.03 0.04 0.04 0.05 0.06 0.06 0.06 0.06 0.06 0.07 0.09 0.11 0.10 0.10 0.10 0.09 0.08 0.06 0.03 0.02 0.02 0.02 0.02 0.02 0.01 0.02 0.02 0.03 0.04
0.00 0.01 0.01 0.01 0.01 0.03 0.04 0.06 0.07 0.05 0.05 0.06 0.06 0.07 0.06 0.04 0.05 0.05 0.06 0.07 0.07 0.06 0.06 0.09 0.11 0.14 0.14 0.12 0.11 0.10 0.08 0.07 0.05 0.03 0.02 0.02 0.02 0.03 0.03 0.02 0.02 0.03 0.02
0.01 0.01 0.02 0.02 0.02 0.04 0.07 0.08 0.09 0.07 0.06 0.07 0.07 0.09 0.09 0.07 0.06 0.04 0.05 0.06 0.07 0.06 0.07 0.06 0.08 0.11 0.14 0.12 0.11 0.11 0.07 0.05 0.06 0.06 0.05 0.04 0.03 0.04 0.04 0.03 0.03 0.03 0.02
0.00 0.01 0.02 0.02 0.02 0.02 0.03 0.05 0.10 0.08 0.06 0.06 0.07 0.08 0.09 0.09 0.07 0.05 0.04 0.06 0.07 0.07 0.07 0.07 0.08 0.11 0.13 0.13 0.11 0.10 0.08 0.06 0.07 0.08 0.09 0.08 0.06 0.04 0.03 0.02 0.02 0.03 0.02
0.00 0.01 0.02 0.02 0.02 0.02 0.04 0.05 0.10 0.10 0.08 0.08 0.08 0.08 0.07 0.08 0.07 0.05 0.05 0.05 0.05 0.05 0.07 0.09 0.09 0.08 0.08 0.08 0.09 0.09 0.09 0.10 0.11 0.12 0.11 0.11 0.09 0.05 0.03 0.03 0.03 0.03 0.03
MSLP
1006.30 1005.08 1003.91 1002.96 1002.35 1002.15 1002.41 1003.07 1004.07 1005.29 1006.61 1007.93 1009.15 1010.23 1011.12 1011.83 1012.39 1012.82 1013.15 1013.44 1013.71 1013.98 1014.27 1014.59 1014.91 1015.23 1015.51 1015.76 1015.95 1016.09 1016.19 1016.29 1016.41 1016.57 1016.77 1017.03 1017.30 1017.57 1017.82 1018.02 1018.17 1018.28 1018.38
1006.48 1005.21 1003.98 1002.96 1002.29 1002.06 1002.29 1002.96 1003.99 1005.27 1006.67 1008.07 1009.38 1010.52 1011.47 1012.23 1012.80 1013.23 1013.56 1013.83 1014.09 1014.35 1014.64 1014.95 1015.27 1015.58 1015.86 1016.09 1016.26 1016.39 1016.49 1016.58 1016.70 1016.87 1017.09 1017.35 1017.64 1017.92 1018.18 1018.38 1018.53 1018.64 1018.73
1006.83 1005.61 1004.43 1003.44 1002.79 1002.56 1002.78 1003.42 1004.43 1005.67 1007.05 1008.43 1009.72 1010.86 1011.80 1012.54 1013.11 1013.53 1013.86 1014.13 1014.39 1014.67 1014.97 1015.29 1015.62 1015.94 1016.22 1016.43 1016.60 1016.71 1016.79 1016.87 1016.98 1017.14 1017.36 1017.63 1017.92 1018.21 1018.47 1018.68 1018.84 1018.97 1019.07
1007.36 1006.29 1005.24 1004.38 1003.81 1003.62 1003.84 1004.44 1005.35 1006.50 1007.75 1009.02 1010.20 1011.24 1012.11 1012.80 1013.34 1013.75 1014.08 1014.36 1014.65 1014.95 1015.29 1015.64 1015.99 1016.31 1016.59 1016.80 1016.93 1017.02 1017.07 1017.13 1017.22 1017.37 1017.58 1017.85 1018.15 1018.45 1018.72 1018.95 1019.13 1019.27 1019.40
1008.01 1007.16 1006.34 1005.66 1005.24 1005.13 1005.35 1005.88 1006.68 1007.65 1008.71 1009.79 1010.79 1011.67 1012.43 1013.04 1013.53 1013.92 1014.26 1014.58 1014.90 1015.24 1015.61 1015.99 1016.37 1016.70 1016.96 1017.15 1017.26 1017.31 1017.33 1017.35 1017.41 1017.55 1017.75 1018.01 1018.32 1018.63 1018.93 1019.18 1019.39 1019.56 1019.71
1008.71 1008.11 1007.55 1007.12 1006.87 1006.87 1007.11 1007.58 1008.23 1009.01 1009.84 1010.68 1011.47 1012.18 1012.79 1013.31 1013.75 1014.12 1014.47 1014.82 1015.18 1015.56 1015.97 1016.37 1016.75 1017.08 1017.32 1017.48 1017.55 1017.55 1017.53 1017.51 1017.55 1017.67 1017.87 1018.14 1018.46 1018.79 1019.11 1019.40 1019.63 1019.83 1020.00
1009.35 1009.02 1008.73 1008.55 1008.50 1008.62 1008.89 1009.30 1009.82 1010.41 1011.03 1011.63 1012.21 1012.75 1013.23 1013.65 1014.04 1014.41 1014.77 1015.13 1015.52 1015.93 1016.35 1016.76 1017.13 1017.43 1017.64 1017.75 1017.77 1017.73 1017.66 1017.62 1017.63 1017.75 1017.95 1018.24 1018.59 1018.95 1019.30 1019.61 1019.87 1020.08 1020.25
1009.88 1009.78 1009.74 1009.78 1009.93 1010.17 1010.49 1010.87 1011.29 1011.73 1012.16 1012.59 1012.99 1013.38 1013.75 1014.11 1014.46 1014.81 1015.16 1015.54 1015.93 1016.34 1016.75 1017.13 1017.47 1017.73 1017.89 1017.95 1017.92 1017.83 1017.73 1017.66 1017.67 1017.79 1018.02 1018.34 1018.72 1019.11 1019.49 1019.82 1020.09 1020.30 1020.47
1010.28 1010.35 1010.51 1010.74 1011.04 1011.40 1011.78 1012.15 1012.52 1012.86 1013.17 1013.47 1013.77 1014.06 1014.36 1014.67 1014.99 1015.32 1015.66 1016.02 1016.39 1016.76 1017.13 1017.47 1017.76 1017.96 1018.06 1018.07 1017.99 1017.87 1017.74 1017.67 1017.69 1017.83 1018.09 1018.45 1018.86 1019.30 1019.70 1020.03 1020.30 1020.49 1020.63
1010.59 1010.77 1011.05 1011.42 1011.84 1012.28 1012.72 1013.11 1013.46 1013.76 1014.02 1014.27 1014.51 1014.76 1015.02 1015.31 1015.60 1015.90 1016.21 1016.53 1016.86 1017.18 1017.49 1017.76 1017.98 1018.12 1018.17 1018.12 1018.01 1017.86 1017.72 1017.65 1017.69 1017.86 1018.16 1018.56 1019.02 1019.48 1019.89 1020.23 1020.48 1020.65 1020.76
1010.86 1011.10 1011.45 1011.89 1012.38 1012.88 1013.36 1013.78 1014.14 1014.44 1014.70 1014.94 1015.18 1015.43 1015.69 1015.96 1016.23 1016.51 1016.78 1017.04 1017.30 1017.55 1017.79 1018.00 1018.15 1018.23 1018.23 1018.15 1018.00 1017.83 1017.70 1017.64 1017.70 1017.90 1018.23 1018.67 1019.15 1019.63 1020.06 1020.39 1020.62 1020.76 1020.83
1011.18 1011.43 1011.80 1012.27 1012.78 1013.30 1013.79 1014.23 1014.61 1014.94 1015.22 1015.49 1015.76 1016.03 1016.30 1016.57 1016.83 1017.07 1017.29 1017.49 1017.69 1017.87 1018.04 1018.19 1018.28 1018.32 1018.28 1018.17 1018.00 1017.83 1017.69 1017.64 1017.71 1017.93 1018.29 1018.74 1019.24 1019.73 1020.16 1020.49 1020.70 1020.82 1020.87
1011.58 1011.83 1012.19 1012.63 1013.13 1013.63 1014.11 1014.55 1014.94 1015.29 1015.61 1015.92 1016.22 1016.52 1016.82 1017.09 1017.33 1017.53 1017.71 1017.85 1017.99 1018.11 1018.23 1018.33 1018.39 1018.40 1018.34 1018.21 1018.04 1017.86 1017.71 1017.65 1017.72 1017.94 1018.29 1018.74 1019.24 1019.73 1020.16 1020.48 1020.69 1020.80 1020.84
1012.06 1012.30 1012.63 1013.04 1013.49 1013.95 1014.39 1014.80 1015.19 1015.54 1015.88 1016.21 1016.55 1016.87 1017.18 1017.45 1017.68 1017.86 1017.99 1018.10 1018.19 1018.28 1018.37 1018.44 1018.49 1018.49 1018.43 1018.30 1018.12 1017.92 1017.76 1017.67 1017.71 1017.89 1018.21 1018.64 1019.12 1019.60 1020.02 1020.35 1020.57 1020.69 1020.75
1012.55 1012.80 1013.12 1013.48 1013.88 1014.27 1014.66 1015.03 1015.37 1015.70 1016.04 1016.38 1016.72 1017.06 1017.37 1017.64 1017.86 1018.02 1018.14 1018.22 1018.30 1018.37 1018.45 1018.52 1018.58 1018.59 1018.53 1018.40 1018.22 1018.01 1017.81 1017.68 1017.67 1017.79 1018.05 1018.42 1018.87 1019.32 1019.74 1020.08 1020.32 1020.48 1020.57
1012.96 1013.24 1013.55 1013.89 1014.24 1014.58 1014.90 1015.20 1015.49 1015.78 1016.08 1016.40 1016.73 1017.06 1017.37 1017.64 1017.85 1018.01 1018.12 1018.21 1018.28 1018.36 1018.46 1018.55 1018.63 1018.66 1018.62 1018.50 1018.32 1018.08 1017.85 1017.67 1017.58 1017.62 1017.80 1018.10 1018.48 1018.90 1019.31 1019.66 1019.94 1020.14 1020.29
1013.19 1013.51 1013.85 1014.18 1014.50 1014.79 1015.05 1015.29 1015.52 1015.75 1016.01 1016.29 1016.59 1016.89 1017.19 1017.45 1017.67 1017.83 1017.96 1018.06 1018.15 1018.25 1018.37 1018.50 1018.60 1018.67 1018.65 1018.55 1018.37 1018.12 1017.85 1017.61 1017.44 1017.39 1017.48 1017.69 1018.00 1018.37 1018.76 1019.13 1019.44 1019.70 1019.90
1013.20 1013.57 1013.93 1014.28 1014.59 1014.85 1015.07 1015.26 1015.43 1015.61 1015.80 1016.03 1016.30 1016.57 1016.85 1017.11 1017.32 1017.50 1017.64 1017.77 1017.89 1018.02 1018.17 1018.32 1018.47 1018.56 1018.59 1018.51 1018.34 1018.09 1017.80 1017.51 1017.27 1017.13 1017.12 1017.24 1017.47 1017.78 1018.14 1018.51 1018.85 1019.15 1019.41
1012.98 1013.39 1013.80 1014.17 1014.48 1014.74 1014.94 1015.09 1015.22 1015.34 1015.48 1015.66 1015.88 1016.13 1016.38 1016.63 1016.85 1017.04 1017.20 1017.35 1017.49 1017.65 1017.83 1018.01 1018.19 1018.32 1018.39 1018.35 1018.21 1017.98 1017.69 1017.37 1017.08 1016.87 1016.77 1016.79 1016.93 1017.18 1017.48 1017.83 1018.18 1018.51 1018.81
1012.59 1013.03 1013.47 1013.86 1014.20 1014.46 1014.65 1014.78 1014.88 1014.96 1015.06 1015.20 1015.37 1015.59 1015.82 1016.05 1016.28 1016.47 1016.65 1016.81 1016.97 1017.15 1017.34 1017.55 1017.76 1017.93 1018.04 1018.06 1017.97 1017.79 1017.52 1017.20 1016.89 1016.63 1016.45 1016.38 1016.43 1016.59 1016.83 1017.13 1017.46 1017.79 1018.12
1012.15 1012.59 1013.03 1013.43 1013.78 1014.05 1014.24 1014.37 1014.45 1014.50 1014.57 1014.67 1014.81 1014.99 1015.20 1015.43 1015.64 1015.84 1016.02 1016.18 1016.35 1016.53 1016.73 1016.95 1017.18 1017.39 1017.55 1017.64 1017.62 1017.50 1017.29 1017.01 1016.70 1016.41 1016.17 1016.03 1015.98 1016.04 1016.19 1016.42 1016.71 1017.02 1017.35
1011.77 1012.17 1012.59 1012.98 1013.31 1013.58 1013.77 1013.89 1013.96 1014.00 1014.04 1014.12 1014.23 1014.39 1014.57 1014.77 1014.98 1015.16 1015.34 1015.49 1015.65 1015.83 1016.02 1016.25 1016.50 1016.74 1016.95 1017.11 1017.17 1017.14 1017.00 1016.78 1016.50 1016.21 1015.93 1015.71 1015.57 1015.53 1015.58 1015.72 1015.93 1016.20 1016.51
1011.54 1011.87 1012.23 1012.57 1012.87 1013.11 1013.29 1013.39 1013.45 1013.48 1013.51 1013.57 1013.66 1013.79 1013.95 1014.14 1014.32 1014.49 1014.65 1014.79 1014.93 1015.08 1015.27 1015.49 1015.74 1016.01 1016.27 1016.49 1016.64 1016.69 1016.64 1016.49 1016.26 1015.98 1015.69 1015.41 1015.19 1015.05 1014.99 1015.03 1015.15 1015.35 1015.62
1011.52 1011.75 1012.01 1012.27 1012.51 1012.70 1012.84 1012.92 1012.97 1012.99 1013.01 1013.05 1013.13 1013.24 1013.38 1013.54 1013.71 1013.86 1013.99 1014.11 1014.23 1014.36 1014.52 1014.72 1014.97 1015.25 1015.54 1015.81 1016.03 1016.16 1016.19 1016.12 1015.95 1015.70 1015.40 1015.09 1014.80 1014.57 1014.41 1014.35 1014.38 1014.50 1014.72
1011.69 1011.81 1011.95 1012.10 1012.25 1012.37 1012.45 1012.51 1012.53 1012.54 1012.55 1012.59 1012.65 1012.75 1012.87 1013.01 1013.15 1013.28 1013.39 1013.48 1013.57 1013.68 1013.81 1013.99 1014.22 1014.49 1014.79 1015.08 1015.34 1015.53 1015.63 1015.62 1015.51 1015.31 1015.03 1014.71 1014.38 1014.09 1013.85 1013.69 1013.63 1013.68 1013.84
1012.00 1012.00 1012.02 1012.05 1012.09 1012.12 1012.15 1012.16 1012.16 1012.16 1012.17 1012.19 1012.25 1012.33 1012.43 1012.55 1012.67 1012.78 1012.86 1012.94 1013.00 1013.07 1013.17 1013.31 1013.51 1013.75 1014.02 1014.31 1014.57 1014.79 1014.94 1014.99 1014.94 1014.78 1014.54 1014.24 1013.91 1013.59 1013.30 1013.08 1012.95 1012.93 1013.03
Thickness
5798 5798 5793 5793 5793 5794 5794 5794 5793 5791 5790 5789 5788 5787 5786 5785 5783 5782 5781 5780 5779 5778 5776 5775 5774 5773 5771 5770 5769 5768 5766 5765 5765 5764 5763 5762 5760 5759 5758 5758 5758 5757 5753
5798 5796 5791 5791 5792 5792 5792 5792 5791 5790 5789 5788 5786 5785 5784 5783 5782 5780 5779 5778 5778 5776 5775 5773 5772 5771 5770 5769 5768 5766 5765 5764 5763 5763 5762 5761 5759 5758 5757 5757 5758 5756 5753
5797 5796 5791 5789 5789 5790 5790 5790 5789 5788 5788 5786 5785 5784 5782 5781 5780 5779 5777 5776 5776 5774 5773 5772 5771 5770 5769 5768 5766 5765 5764 5763 5762 5762 5763 5763 5759 5756 5756 5755 5755 5753 5752
5797 5796 5791 5787 5787 5788 5788 5789 5788 5787 5786 5785 5784 5782 5781 5780 5778 5777 5776 5775 5774 5773 5772 5771 5770 5769 5767 5766 5765 5764 5763 5762 5762 5763 5766 5765 5761 5756 5755 5754 5753 5752 5751
5796 5794 5789 5786 5785 5785 5786 5787 5787 5786 5785 5784 5782 5781 5780 5778 5777 5775 5774 5773 5772 5771 5770 5770 5769 5768 5766 5765 5764 5763 5762 5761 5762 5764 5765 5763 5761 5756 5754 5753 5752 5751 5750
5794 5793 5788 5784 5784 5784 5784 5785 5785 5784 5783 5782 5781 5780 5779 5777 5776 5774 5773 5772 5771 5770 5769 5768 5767 5766 5765 5763 5763 5762 5761 5761 5763 5766 5764 5762 5760 5755 5754 5752 5751 5750 5749
5793 5792 5788 5783 5782 5782 5782 5783 5782 5782 5781 5780 5779 5779 5778 5776 5774 5773 5772 5770 5769 5768 5767 5766 5765 5764 5764 5762 5761 5761 5760 5761 5765 5765 5763 5762 5758 5755 5753 5752 5751 5750 5749
5794 5792 5787 5782 5781 5781 5781 5781 5781 5780 5780 5779 5778 5777 5776 5775 5774 5772 5770 5769 5768 5767 5766 5764 5764 5763 5762 5761 5760 5760 5759 5761 5764 5765 5763 5761 5756 5754 5753 5752 5750 5750 5748
5794 5792 5789 5787 5782 5780 5780 5780 5779 5778 5778 5777 5777 5776 5775 5774 5772 5771 5769 5768 5767 5765 5764 5763 5762 5761 5761 5760 5759 5759 5759 5761 5765 5764 5763 5761 5755 5754 5752 5751 5750 5749 5748
5792 5791 5788 5788 5785 5783 5781 5778 5778 5777 5777 5777 5776 5775 5774 5773 5771 5770 5768 5767 5766 5764 5763 5762 5761 5760 5759 5759 5758 5758 5759 5760 5765 5765 5764 5760 5755 5753 5752 5751 5750 5749 5748
5788 5789 5789 5788 5786 5784 5783 5779 5778 5777 5776 5776 5775 5774 5774 5773 5772 5770 5768 5766 5765 5763 5762 5761 5760 5759 5759 5758 5757 5758 5759 5764 5765 5765 5763 5758 5755 5753 5752 5751 5750 5748 5747
5786 5787 5787 5787 5786 5785 5783 5781 5779 5779 5777 5777 5776 5775 5774 5772 5771 5771 5767 5765 5764 5763 5761 5760 5759 5759 5759 5761 5759 5759 5762 5764 5765 5764 5762 5757 5755 5753 5752 5751 5749 5748 5747
5789 5787 5788 5786 5785 5785 5783 5781 5780 5779 5777 5776 5775 5774 5773 5772 5771 5771 5768 5766 5764 5763 5763 5761 5761 5762 5763 5762 5762 5763 5763 5765 5765 5765 5761 5757 5755 5753 5752 5751 5750 5749 5747
5790 5788 5788 5787 5785 5783 5782 5781 5779 5778 5777 5776 5774 5774 5772 5772 5771 5771 5768 5768 5766 5765 5763 5763 5762 5762 5762 5761 5762 5763 5763 5764 5765 5765 5760 5757 5755 5753 5752 5751 5750 5749 5748
5791 5789 5788 5787 5784 5782 5780 5780 5780 5778 5777 5776 5775 5773 5772 5772 5772 5771 5769 5767 5768 5766 5765 5763 5763 5761 5761 5761 5762 5763 5763 5763 5763 5764 5762 5757 5755 5754 5753 5751 5750 5749 5748
5793 5791 5790 5787 5785 5782 5780 5779 5779 5779 5776 5777 5775 5774 5772 5773 5772 5770 5769 5768 5768 5767 5766 5764 5763 5762 5762 5762 5762 5763 5763 5764 5763 5763 5763 5760 5757 5755 5754 5752 5751 5749 5748
5796 5794 5791 5789 5786 5783 5782 5781 5781 5780 5778 5777 5775 5773 5772 5772 5771 5770 5770 5768 5768 5766 5764 5763 5762 5762 5762 5763 5762 5763 5764 5764 5765 5764 5764 5763 5761 5757 5755 5754 5752 5750 5749
5799 5795 5793 5793 5789 5785 5783 5782 5782 5781 5779 5778 5776 5775 5773 5772 5771 5770 5770 5769 5767 5767 5766 5764 5764 5763 5763 5763 5763 5764 5765 5765 5765 5765 5765 5764 5763 5762 5758 5756 5754 5752 5751
5802 5798 5794 5793 5790 5788 5785 5783 5783 5781 5780 5779 5778 5776 5774 5772 5771 5771 5770 5769 5768 5768 5767 5767 5766 5764 5762 5762 5762 5763 5765 5766 5765 5766 5766 5765 5764 5762 5762 5758 5756 5754 5752
5805 5801 5797 5794 5792 5789 5787 5784 5783 5782 5782 5781 5780 5777 5775 5773 5772 5772 5771 5769 5770 5769 5767 5766 5763 5762 5762 5762 5764 5765 5766 5767 5767 5767 5766 5766 5764 5763 5763 5761 5758 5757 5754
5807 5802 5799 5796 5793 5790 5788 5786 5783 5782 5782 5782 5781 5779 5776 5775 5774 5772 5774 5771 5770 5769 5767 5766 5764 5762 5762 5763 5761 5760 5765 5768 5768 5767 5767 5767 5766 5764 5763 5761 5760 5760 5758
5809 5805 5801 5798 5796 5793 5791 5789 5788 5786 5785 5784 5783 5780 5778 5776 5775 5774 5772 5772 5770 5768 5766 5765 5763 5762 5763 5764 5761 5757 5756 5761 5764 5769 5767 5765 5765 5765 5765 5764 5761 5759 5759
5812 5809 5806 5802 5799 5796 5794 5792 5789 5786 5784 5783 5781 5780 5779 5777 5775 5774 5772 5772 5770 5770 5768 5765 5764 5762 5761 5763 5764 5759 5754 5753 5758 5765 5766 5766 5765 5764 5765 5764 5762 5760 5759
5817 5814 5809 5804 5801 5798 5795 5793 5790 5786 5784 5784 5783 5782 5780 5778 5776 5775 5773 5771 5769 5770 5768 5767 5767 5765 5761 5760 5761 5761 5760 5760 5754 5755 5761 5765 5765 5763 5764 5764 5764 5761 5759
5820 5816 5811 5806 5802 5799 5796 5794 5790 5789 5787 5787 5785 5781 5779 5778 5777 5776 5773 5771 5769 5769 5768 5768 5766 5765 5764 5762 5761 5760 5759 5758 5758 5754 5752 5756 5761 5763 5764 5763 5763 5762 5760
5821 5817 5812 5806 5801 5799 5796 5795 5791 5788 5786 5784 5782 5780 5779 5779 5777 5776 5774 5772 5770 5770 5768 5767 5765 5764 5763 5762 5761 5761 5759 5756 5756 5755 5752 5752 5753 5758 5761 5761 5761 5761 5760